Location: Delia
(51.6321°N, 112.3740°W)
Time: 12:10:39
(UTC+00:00)

Envisat - Pass Details

Date: 06 December 2021
Orbit: 764 x 766 km, 98.2° (Epoch: 25 January)

Event Time Altitude Azimuth Distance (km) Brightness Sun altitude
Rises 14:15:34 0° 5° (N) 3,248 6.1 -9.5°
Reaches altitude 10° 14:18:23 10° 350° (N) 2,317 5.2 -9.1°
Maximum altitude 14:22:04 21° 304° (WNW) 1,698 4.2 -8.6°
Drops below altitude 10° 14:25:44 10° 257° (WSW) 2,305 5.0 -8.1°
Sets 14:28:32 0° 242° (WSW) 3,227 5.9 -7.7°
